This is the latest recevied weather packets stored in our database for station/object KE8WMS. If no packets are shown the sender has not sent any weather packets the latest 10 day(s).
| Time | Temp. | Humidity | Pressure | Rain* | Wind** | Luminosity | Snow |
|---|---|---|---|---|---|---|---|
| 1787962184 | 18.89° C | 76% | 1016.2 hPa | 0 mm | - | 2 W/m² | - |
| 1787961880 | 18.89° C | 76% | 1016.4 hPa | 0 mm | - | 4 W/m² | - |
| 1787961578 | 19.44° C | 77% | 1016.2 hPa | 0 mm | - | 6 W/m² | - |
| 1787961273 | 19.44° C | 76% | 1016.5 hPa | 0 mm | - | 8 W/m² | - |
| 1787960973 | 20° C | 74% | 1016.4 hPa | 0 mm | - | 11 W/m² | - |
| 1787960668 | 20° C | 73% | 1016.6 hPa | 0 mm | - | 14 W/m² | - |
| 1787960367 | 20.56° C | 72% | 1016.3 hPa | 0 mm | - | 17 W/m² | - |
| 1787960061 | 20.56° C | 70% | 1016.4 hPa | 0 mm | - | 20 W/m² | - |
| 1787959756 | 20.56° C | 69% | 1016.5 hPa | 0 mm | - | 22 W/m² | - |
| 1787959452 | 20.56° C | 72% | 1016.4 hPa | 0 mm | - | 25 W/m² | - |
| 1787959146 | 21.11° C | 70% | 1016.4 hPa | 0 mm | - | 27 W/m² | - |
| 1787958842 | 21.11° C | 69% | 1016.4 hPa | 0 mm | - | 29 W/m² | - |
| 1787958537 | 21.11° C | 67% | 1016.4 hPa | 0 mm | - | 31 W/m² | - |
| 1787958233 | 21.11° C | 67% | 1016.4 hPa | 0 mm | - | 33 W/m² | - |
| 1787957932 | 21.11° C | 68% | 1016.5 hPa | 0 mm | - | 34 W/m² | - |
| 1787957631 | 21.67° C | 69% | 1016.9 hPa | 0 mm | - | 35 W/m² | - |
| 1787957327 | 21.67° C | 68% | 1016.9 hPa | 0 mm | - | 37 W/m² | - |
| 1787957026 | 21.67° C | 68% | 1017 hPa | 0 mm | - | 38 W/m² | - |
| 1787956725 | 21.67° C | 66% | 1016.9 hPa | 0 mm | - | 39 W/m² | - |
| 1787956421 | 21.67° C | 69% | 1016.9 hPa | 0 mm | - | 40 W/m² | - |
| 1787956116 | 21.67° C | 69% | 1017.2 hPa | 0 mm | - | 41 W/m² | - |
| 1787955811 | 21.67° C | 67% | 1017.1 hPa | 0 mm | - | 42 W/m² | - |
| 1787955507 | 21.67° C | 67% | 1017.2 hPa | 0 mm | - | 43 W/m² | - |
| 1787955206 | 21.67° C | 66% | 1017 hPa | 0 mm | - | 50 W/m² | - |
| 1787954902 | 22.22° C | 66% | 1017 hPa | 0 mm | - | 45 W/m² | - |
* Rain latest hour (hover to see other rain measurements)
** Current wind speed in m/s (hover to see current wind gust speed)